Weather History for KMCD - July, 2013

Change the Weather History Date:

Saturday, July 27, 2013

  Actual Average Record
Temperature  
Mean Temperature 60 °F -  
Max Temperature 65 °F 72 °F 83 °F (1983)
Min Temperature 55 °F 58 °F 47 °F (1981)
Degree Days  
Heating Degree Days 5    
Growing Degree Days 10 (Base 50)    
Moisture  
Dew Point 55 °F    
Average Humidity 85    
Maximum Humidity 96    
Minimum Humidity 68    
Precipitation  
Precipitation 0.00 in - - ()
Sea Level Pressure  
Sea Level Pressure 29.82 in    
Wind  
Wind Speed 6 mph (NNW)    
Max Wind Speed 10 mph    
Max Gust Speed -    
Visibility 9 miles    
Events      
Averages and records for this station are not official NWS values.
T = Trace of Precipitation, MM = Missing Value Source: NWS Daily Summary

Daily Weather History Graph

Daily Weather History Graph

Search for Another Location

Airport or City:

Trip Planner

Search our weather history database for the weather conditions in past years. The results will help you decide how hot, cold, wet, or windy it might be!

Date:

Astronomy

Jul. 27, 2013 Rise Set
Actual Time 6:15 AM EDT 9:13 PM EDT
Civil Twilight 5:40 AM EDT 9:48 PM EDT
Nautical Twilight 4:55 AM EDT 10:33 PM EDT
Astronomical Twilight 4:01 AM EDT 11:26 PM EDT
Moon 11:37 PM EDT (7/27) 12:17 PM EDT (7/27)
Length of Visible Light 16h 07m
Length of Day
14h 57m
Waning Gibbous, 71% of the Moon is Illuminated
Jul 27
Waning Gibbous
Jul 29
Last Quarter
Aug 6
New
Aug 14
First Quarter
Aug 20
Full

Hourly Weather History & Observations

Time (EDT) Temp. Dew Point Humidity Pressure Visibility Wind Dir Wind Speed Gust Speed Precip Events Conditions
12:15 AM 63.1 °F 59.9 °F 89% 29.85 in 10.0 mi SW 6.9 mph - N/A   Overcast
12:36 AM 62.4 °F 59.4 °F 90% 29.85 in 10.0 mi WNW 8.1 mph - N/A   Overcast
12:55 AM 61.0 °F 58.3 °F 91% 29.85 in 10.0 mi NNW 6.9 mph - N/A   Overcast
1:15 AM 60.1 °F 57.6 °F 91% 29.84 in 10.0 mi NNW 9.2 mph - N/A   Overcast
1:36 AM 59.4 °F 56.8 °F 91% 29.84 in 10.0 mi NNW 8.1 mph - N/A   Overcast
1:55 AM 58.1 °F 56.1 °F 93% 29.84 in 10.0 mi North 5.8 mph - N/A   Overcast
2:15 AM 58.1 °F 56.3 °F 94% 29.83 in 10.0 mi North 8.1 mph - N/A   Overcast
2:36 AM 58.3 °F 56.3 °F 93% 29.84 in 10.0 mi North 6.9 mph - N/A   Overcast
2:55 AM 58.6 °F 56.3 °F 92% 29.85 in 10.0 mi NNW 4.6 mph - N/A   Overcast
3:15 AM 58.5 °F 56.3 °F 93% 29.85 in 10.0 mi NNW 5.8 mph - N/A   Overcast
3:36 AM 58.3 °F 55.9 °F 92% 29.85 in 10.0 mi NNW 4.6 mph - N/A   Overcast
3:55 AM 57.9 °F 55.6 °F 92% 29.85 in 10.0 mi NW 6.9 mph - N/A   Overcast
4:15 AM 57.7 °F 55.4 °F 92% 29.85 in 10.0 mi NW 5.8 mph - N/A   Overcast
4:36 AM 57.4 °F 55.4 °F 93% 29.85 in 10.0 mi NW 4.6 mph - N/A   Overcast
4:55 AM 57.6 °F 55.4 °F 92% 29.85 in 10.0 mi North 3.5 mph - N/A   Overcast
5:15 AM 57.4 °F 55.0 °F 92% 29.85 in 10.0 mi North 3.5 mph - N/A   Overcast
5:36 AM 57.4 °F 54.9 °F 91% 29.85 in 10.0 mi NNW 3.5 mph - N/A   Overcast
5:55 AM 57.2 °F 54.9 °F 92% 29.85 in 10.0 mi NNW 4.6 mph - N/A   Overcast
6:15 AM 57.2 °F 55.0 °F 92% 29.84 in 10.0 mi NNW 4.6 mph - N/A   Overcast
6:36 AM 56.8 °F 55.0 °F 94% 29.85 in 10.0 mi NW 4.6 mph - N/A   Overcast
6:55 AM 56.3 °F 54.7 °F 94% 29.85 in 2.5 mi WNW 4.6 mph - N/A   Overcast
7:15 AM 55.8 °F 54.1 °F 94% 29.85 in 2.0 mi WNW 4.6 mph - N/A   Overcast
7:36 AM 55.6 °F 54.3 °F 96% 29.85 in 4.0 mi NNW 3.5 mph - N/A   Overcast
7:55 AM 55.8 °F 54.3 °F 95% 29.85 in 2.5 mi NW 4.6 mph - N/A   Overcast
8:15 AM 55.8 °F 54.5 °F 96% 29.85 in 2.0 mi NW 3.5 mph - N/A   Overcast
8:36 AM 56.1 °F 54.7 °F 95% 29.85 in 4.0 mi North 4.6 mph - N/A   Overcast
8:55 AM 56.3 °F 54.7 °F 94% 29.85 in 7.0 mi North 4.6 mph - N/A   Overcast
9:15 AM 56.5 °F 54.9 °F 94% 29.85 in 10.0 mi North 4.6 mph - N/A   Overcast
9:36 AM 57.4 °F 54.9 °F 91% 29.85 in 10.0 mi NNE 5.8 mph - N/A   Overcast
9:55 AM 58.1 °F 55.4 °F 91% 29.84 in 10.0 mi North 4.6 mph - N/A   Overcast
10:16 AM 58.3 °F 54.9 °F 88% 29.84 in 10.0 mi North 4.6 mph - N/A   Overcast
10:36 AM 58.1 °F 54.7 °F 88% 29.84 in 10.0 mi North 4.6 mph - N/A   Overcast
10:55 AM 59.0 °F 55.4 °F 88% 29.84 in 10.0 mi Calm Calm - N/A   Overcast
11:16 AM 59.0 °F 55.2 °F 87% 29.84 in 10.0 mi NNE 4.6 mph - N/A   Overcast
11:36 AM 59.2 °F 54.9 °F 86% 29.84 in 10.0 mi NNE 3.5 mph - N/A   Overcast
11:55 AM 60.4 °F 55.6 °F 84% 29.84 in 10.0 mi North 4.6 mph - N/A   Overcast
12:16 PM 59.9 °F 55.2 °F 84% 29.84 in 10.0 mi NNE 3.5 mph - N/A   Overcast
12:35 PM 59.9 °F 54.9 °F 83% 29.83 in 10.0 mi North 3.5 mph - N/A   Overcast
12:55 PM 59.2 °F 54.9 °F 86% 29.83 in 10.0 mi NW 4.6 mph - N/A   Overcast
1:16 PM 61.2 °F 55.2 °F 81% 29.82 in 10.0 mi NNW 4.6 mph - N/A   Overcast
1:36 PM 62.4 °F 55.0 °F 77% 29.82 in 10.0 mi NNW 6.9 mph - N/A   Overcast
1:55 PM 61.7 °F 55.2 °F 79% 29.83 in 10.0 mi WNW 4.6 mph - N/A   Overcast
2:16 PM 62.4 °F 56.1 °F 80% 29.82 in 10.0 mi NW 6.9 mph - N/A   Overcast
2:35 PM 63.0 °F 56.3 °F 79% 29.82 in 10.0 mi NW 6.9 mph - N/A   Overcast
2:55 PM 61.9 °F 56.3 °F 82% 29.82 in 10.0 mi NW 9.2 mph - N/A   Overcast
3:16 PM 62.6 °F 56.7 °F 81% 29.82 in 10.0 mi NNW 10.4 mph - N/A   Overcast
3:35 PM 62.1 °F 56.1 °F 81% 29.82 in 10.0 mi North 6.9 mph - N/A   Overcast
3:55 PM 63.9 °F 56.8 °F 78% 29.81 in 10.0 mi North 5.8 mph - N/A   Overcast
4:16 PM 63.0 °F 55.8 °F 77% 29.81 in 10.0 mi North 9.2 mph - N/A   Overcast
4:35 PM 63.5 °F 55.4 °F 75% 29.81 in 10.0 mi North 6.9 mph - N/A   Overcast
4:55 PM 63.5 °F 55.6 °F 75% 29.81 in 10.0 mi North 3.5 mph - N/A   Overcast
5:16 PM 63.5 °F 55.6 °F 75% 29.81 in 10.0 mi NNW 4.6 mph - N/A   Overcast
5:35 PM 63.5 °F 55.6 °F 75% 29.80 in 10.0 mi North 4.6 mph - N/A   Overcast
5:55 PM 63.9 °F 55.6 °F 74% 29.80 in 10.0 mi NW 4.6 mph - N/A   Overcast
6:16 PM 63.9 °F 55.4 °F 74% 29.80 in 10.0 mi NW 3.5 mph - N/A   Overcast
6:35 PM 64.9 °F 55.0 °F 70% 29.79 in 10.0 mi NW 5.8 mph - N/A   Mostly Cloudy
6:55 PM 65.1 °F 54.1 °F 68% 29.79 in 10.0 mi Calm Calm - N/A   Mostly Cloudy
7:16 PM 63.9 °F 55.6 °F 74% 29.80 in 10.0 mi Calm Calm - N/A   Mostly Cloudy
7:35 PM 63.5 °F 55.4 °F 75% 29.79 in 10.0 mi North 3.5 mph - N/A   Overcast
7:55 PM 62.8 °F 55.2 °F 76% 29.79 in 10.0 mi Calm Calm - N/A   Mostly Cloudy
8:16 PM 61.9 °F 55.4 °F 79% 29.78 in 10.0 mi North 4.6 mph - N/A   Scattered Clouds
8:35 PM 61.3 °F 55.4 °F 81% 29.77 in 10.0 mi North 6.9 mph - N/A   Scattered Clouds
8:55 PM 61.0 °F 54.7 °F 80% 29.77 in 10.0 mi NNW 6.9 mph - N/A   Mostly Cloudy
9:16 PM 60.3 °F 54.5 °F 81% 29.78 in 10.0 mi NW 5.8 mph - N/A   Mostly Cloudy
9:35 PM 59.9 °F 54.5 °F 82% 29.78 in 10.0 mi North 5.8 mph - N/A   Mostly Cloudy
9:55 PM 58.5 °F 53.4 °F 83% 29.78 in 10.0 mi NNW 6.9 mph - N/A   Mostly Cloudy
10:16 PM 58.1 °F 53.1 °F 83% 29.78 in 10.0 mi NNW 8.1 mph - N/A   Mostly Cloudy
10:35 PM 57.7 °F 52.9 °F 84% 29.77 in 10.0 mi NNW 8.1 mph - N/A   Overcast
10:55 PM 57.4 °F 51.8 °F 82% 29.77 in 10.0 mi NW 6.9 mph - N/A   Overcast
11:16 PM 56.8 °F 50.0 °F 78% 29.78 in 10.0 mi NW 9.2 mph - N/A   Overcast
11:35 PM 56.7 °F 49.5 °F 77% 29.77 in 10.0 mi NW 8.1 mph - N/A   Overcast
11:56 PM 56.5 °F 49.1 °F 76% 29.77 in 10.0 mi NW 10.4 mph - N/A   Overcast